This demonstration page uses our WeatherBlox Daily Observations layout. Learn more.

Left ArrowRight Arrow

Hourly Observations for April 9, 2020

Temp ( °F °C ) Dew Point ( °F °C ) Humidity (%) Winds ( mph kmh ) Pressure ( in mb ) Visibility ( mi km ) Precip ( " mm )
12:52 am 00:52 Partly Cloudy 40 4.4 28 -2.2 63 63 NNW 6 9 30.04 1017 10 16 0.00 0.00
1:52 am 01:52 Mostly Cloudy 39 3.9 30 -1.1 70 70 N 7 11 30.06 1018 10 16 0.00 0.00
2:52 am 02:52 Partly Cloudy 37 2.8 28 -2.2 70 70 N 5 7 30.05 1018 10 16 0.00 0.00
3:52 am 03:52 Clear 39 3.9 29 -1.7 67 67 Calm 30.05 1018 10 16 0.00 0.00
4:52 am 04:52 Clear 39 3.9 25 -3.9 57 57 W 12 19 30.06 1018 10 16 0.00 0.00
5:52 am 05:52 Mostly Clear 40 4.4 22 -5.6 49 49 WNW 13 20 30.06 1018 10 16 0.00 0.00
6:52 am 06:52 Partly Cloudy 39 3.9 23 -5 53 53 WNW 13 20 30.05 1018 10 16 0.00 0.00
7:52 am 07:52 Partly Cloudy 41 5 22 -5.6 47 47 W 13 20 30.06 1018 10 16 0.00 0.00
8:52 am 08:52 Mostly Cloudy 45 7.2 22 -5.6 40 40 W 20 31 30.07 1018 10 16 0.00 0.00
9:52 am 09:52 Partly Cloudy 48 8.9 21 -6.1 34 34 WNW 21 33 30.07 1018 10 16 0.00 0.00
10:52 am 10:52 Partly Cloudy 50 10 20 -6.7 30 30 WNW 23 37 30.06 1018 7 11 0.00 0.00
11:52 am 11:52 Partly Cloudy with Blowing Dust 51 10.6 18 -7.8 27 27 NW 30 48 30.06 1018 6 10 0.00 0.00
12:52 pm 12:52 Partly Cloudy with Blowing Dust 51 10.6 18 -7.8 27 27 NW 29 46 30.08 1019 5 8 0.00 0.00
1:52 pm 13:52 Partly Cloudy with Blowing Dust 50 10 19 -7.2 29 29 NW 32 52 30.09 1019 6 10 0.00 0.00
2:52 pm 14:52 Partly Cloudy with Blowing Dust 49 9.4 16 -8.9 27 27 NNW 29 46 30.11 1020 6 10 0.00 0.00
3:52 pm 15:52 Mostly Sunny 48 8.9 17 -8.3 29 29 NNW 35 56 30.10 1019 7 11 0.00 0.00
4:52 pm 16:52 Mostly Sunny 47 8.3 18 -7.8 31 31 NNW 31 50 30.12 1020 10 16 0.00 0.00
5:52 pm 17:52 Mostly Sunny 45 7.2 14 -10 29 29 NW 24 39 30.14 1021 10 16 0.00 0.00
6:52 pm 18:52 Mostly Sunny 42 5.6 17 -8.3 36 36 NNW 24 39 30.16 1022 10 16 0.00 0.00
7:52 pm 19:52 Mostly Sunny 38 3.3 15 -9.4 39 39 NNW 22 35 30.19 1022 10 16 0.00 0.00
8:52 pm 20:52 Mostly Clear 37 2.8 17 -8.3 44 44 NNW 22 35 30.20 1023 10 16 0.00 0.00
9:52 pm 21:52 Mostly Clear 35 1.7 17 -8.3 48 48 NNW 18 30 30.22 1024 10 16 0.00 0.00
10:52 pm 22:52 Clear 33 0.6 17 -8.3 52 52 NW 12 19 30.24 1024 10 16 0.00 0.00
11:52 pm 23:52 Clear 29 -1.7 19 -7.2 66 66 N 8 13 30.24 1024 10 16 0.00 0.00

Powered by AerisWeather